Weather History for Gustavus, AK

Change the Weather History Date:

Thursday, February 13, 2014

  Actual Average Record
Temperature  
Mean Temperature 25 °F -  
Max Temperature 33 °F 36 °F 47 °F (1986)
Min Temperature 17 °F 20 °F -10 °F (1956)
Degree Days  
Heating Degree Days 40    
Moisture  
Dew Point 23 °F    
Average Humidity 85    
Maximum Humidity 100    
Minimum Humidity 64    
Precipitation  
Precipitation 0.00 in - - ()
Sea Level Pressure  
Sea Level Pressure 29.28 in    
Wind  
Wind Speed 9 mph (East)    
Max Wind Speed 23 mph    
Max Gust Speed 29 mph    
Visibility 9 miles    
Events      
Averages and records for this station are not official NWS values.
T = Trace of Precipitation, MM = Missing Value Source: NWS Daily Summary

Daily Weather History Graph

Daily Weather History Graph

Search for Another Location

Airport:

Trip Planner

Search our weather history database for the weather conditions in past years. The results will help you decide how hot, cold, wet, or windy it might be!

Date:

Astronomy

Feb. 13, 2014 Rise Set
Actual Time 7:39 AM AKST 4:55 PM AKST
Civil Twilight 6:57 AM AKST 5:37 PM AKST
Nautical Twilight 6:11 AM AKST 6:23 PM AKST
Astronomical Twilight 5:25 AM AKST 7:09 PM AKST
Moon 4:12 PM AKST (2/13) 6:39 AM AKST (2/13)
Length of Visible Light 10h 39m
Length of Day
9h 15m
Waxing Gibbous, 99% of the Moon is Illuminated
Feb 13
Waxing Gibbous
Feb 14
Full
Feb 22
Last Quarter
Feb 28
New
Mar 8
First Quarter

Hourly Weather History & Observations

Time (AKST) Temp. Windchill Dew Point Humidity Pressure Visibility Wind Dir Wind Speed Gust Speed Precip Events Conditions
12:16 AM 17.6 °F 6.4 °F 15.8 °F 93% 29.39 in 10.0 mi NNW 9.2 mph - N/A   Overcast
12:36 AM 17.6 °F 7.3 °F 14.0 °F 86% 29.38 in 10.0 mi NNW 8.1 mph - N/A   Overcast
12:56 AM 17.6 °F 7.3 °F 15.8 °F 93% 29.37 in 10.0 mi NNW 8.1 mph - N/A   Overcast
1:16 AM 17.6 °F 7.3 °F 15.8 °F 93% 29.36 in 10.0 mi NNW 8.1 mph - N/A   Mostly Cloudy
1:36 AM 17.6 °F 5.7 °F 15.8 °F 93% 29.36 in 10.0 mi NNW 10.4 mph - N/A   Overcast
1:56 AM 17.6 °F 6.4 °F 14.0 °F 86% 29.36 in 10.0 mi NW 9.2 mph - N/A   Overcast
2:16 AM 17.6 °F 5.7 °F 14.0 °F 86% 29.35 in 10.0 mi NNW 10.4 mph - N/A   Overcast
2:36 AM 19.4 °F 14.3 °F 15.8 °F 86% 29.35 in 10.0 mi North 3.5 mph - N/A   Overcast
2:56 AM 19.4 °F 14.3 °F 15.8 °F 86% 29.34 in 10.0 mi NW 3.5 mph - N/A   Overcast
3:16 AM 19.4 °F 11.5 °F 15.8 °F 86% 29.33 in 10.0 mi NW 5.8 mph - N/A   Overcast
3:36 AM 19.4 °F 9.5 °F 15.8 °F 86% 29.33 in 10.0 mi NNW 8.1 mph - N/A   Overcast
3:56 AM 19.4 °F 11.5 °F 15.8 °F 86% 29.31 in 10.0 mi NNW 5.8 mph - N/A   Overcast
4:16 AM 21.2 °F 12.6 °F 17.6 °F 86% 29.31 in 10.0 mi NNW 6.9 mph - N/A   Overcast
4:36 AM 19.4 °F 7.9 °F 17.6 °F 93% 29.30 in 10.0 mi NNW 10.4 mph - N/A   Overcast
4:56 AM 19.4 °F 8.6 °F 15.8 °F 86% 29.29 in 10.0 mi NW 9.2 mph - N/A   Overcast
5:16 AM 19.4 °F 7.9 °F 17.6 °F 93% 29.29 in 10.0 mi NNW 10.4 mph - N/A   Overcast
5:36 AM 19.4 °F 8.6 °F 17.6 °F 93% 29.28 in 10.0 mi NNW 9.2 mph - N/A   Overcast
5:56 AM 19.4 °F 9.5 °F 17.6 °F 93% 29.28 in 10.0 mi NW 8.1 mph - N/A   Overcast
6:16 AM 21.2 °F 16.4 °F 17.6 °F 86% 29.28 in 10.0 mi NNW 3.5 mph - N/A   Overcast
6:36 AM 19.4 °F 14.3 °F 17.6 °F 93% 29.27 in 10.0 mi North 3.5 mph - N/A   Mostly Cloudy
6:56 AM 21.2 °F - 17.6 °F 86% 29.27 in 10.0 mi Calm Calm - N/A   Overcast
7:16 AM 21.2 °F 16.4 °F 17.6 °F 86% 29.27 in 10.0 mi NNW 3.5 mph - N/A   Overcast
7:36 AM 21.2 °F 11.7 °F 17.6 °F 86% 29.27 in 10.0 mi NNW 8.1 mph - N/A   Overcast
7:56 AM 21.2 °F 13.6 °F 17.6 °F 86% 29.26 in 10.0 mi NNW 5.8 mph - N/A   Overcast
8:16 AM 21.2 °F - 17.6 °F 86% 29.25 in 10.0 mi Calm Calm - N/A   Overcast
8:36 AM 21.2 °F - 19.4 °F 93% 29.24 in 10.0 mi Calm Calm - N/A   Overcast
8:56 AM 21.2 °F - 19.4 °F 93% 29.24 in 10.0 mi Calm Calm - N/A   Overcast
9:16 AM 21.2 °F - 19.4 °F 93% 29.24 in 10.0 mi Calm Calm - N/A   Overcast
9:36 AM 24.8 °F 19.1 °F 24.8 °F 100% 29.23 in 0.5 mi ENE 4.6 mph - N/A   Overcast
9:56 AM 26.6 °F 20.0 °F 21.2 °F 80% 29.24 in 1.8 mi NNW 5.8 mph - N/A   Overcast
10:36 AM 30.2 °F 19.8 °F 21.2 °F 69% 29.25 in 10.0 mi SSE 13.8 mph 18.4 mph N/A   Overcast
10:56 AM 30.2 °F 19.3 °F 19.4 °F 64% 29.25 in 10.0 mi SSE 15.0 mph 25.3 mph N/A   Overcast
11:16 AM 30.2 °F 20.2 °F 19.4 °F 64% 29.25 in 10.0 mi SE 12.7 mph 26.5 mph N/A   Overcast
11:36 AM 30.2 °F 18.5 °F 21.2 °F 69% 29.25 in 10.0 mi SE 17.3 mph 25.3 mph N/A   Overcast
11:56 AM 32.0 °F 20.8 °F 21.2 °F 64% 29.25 in 10.0 mi SE 17.3 mph 28.8 mph N/A   Mostly Cloudy
12:16 PM 30.2 °F 16.8 °F 24.8 °F 80% 29.25 in 3.0 mi SE 23.0 mph 28.8 mph N/A   Overcast
12:36 PM 30.2 °F 17.4 °F 24.8 °F 80% 29.26 in 1.2 mi SE 20.7 mph 27.6 mph N/A   Overcast
12:56 PM 30.2 °F 17.4 °F 26.6 °F 86% 29.27 in 1.8 mi SE 20.7 mph 26.5 mph N/A   Overcast
1:16 PM 30.2 °F 18.1 °F 26.6 °F 86% 29.27 in 1.8 mi SE 18.4 mph - N/A   Overcast
1:36 PM 30.2 °F 17.8 °F 26.6 °F 86% 29.28 in 0.8 mi SE 19.6 mph 25.3 mph N/A   Overcast
1:56 PM 30.2 °F 18.5 °F 26.6 °F 86% 29.28 in 0.8 mi SE 17.3 mph 24.2 mph N/A   Overcast
2:16 PM 30.2 °F 18.9 °F 26.6 °F 86% 29.29 in 1.0 mi SE 16.1 mph 24.2 mph N/A   Overcast
2:36 PM 30.2 °F 17.8 °F 26.6 °F 86% 29.29 in 1.2 mi ESE 19.6 mph - N/A   Overcast
2:56 PM 30.2 °F 18.5 °F 26.6 °F 86% 29.28 in 1.5 mi SE 17.3 mph 24.2 mph N/A   Overcast
3:16 PM 30.2 °F 18.9 °F 26.6 °F 86% 29.28 in 3.0 mi ESE 16.1 mph 21.9 mph N/A   Overcast
3:36 PM 30.2 °F 19.8 °F 26.6 °F 86% 29.28 in 10.0 mi ESE 13.8 mph 20.7 mph N/A   Overcast
3:56 PM 30.2 °F 20.2 °F 26.6 °F 86% 29.28 in 10.0 mi ESE 12.7 mph - N/A   Mostly Cloudy
4:16 PM 32.0 °F 23.6 °F 26.6 °F 80% 29.28 in 10.0 mi SE 10.4 mph 17.3 mph N/A   Overcast
4:36 PM 32.0 °F 22.5 °F 26.6 °F 80% 29.29 in 10.0 mi SSE 12.7 mph - N/A   Overcast
4:56 PM 32.0 °F 25.6 °F 26.6 °F 80% 29.29 in 10.0 mi SSE 6.9 mph - N/A   Overcast
5:16 PM 32.0 °F 24.8 °F 26.6 °F 80% 29.29 in 10.0 mi SSE 8.1 mph - N/A   Overcast
5:36 PM 32.0 °F 24.2 °F 26.6 °F 80% 29.28 in 10.0 mi SE 9.2 mph - N/A   Overcast
5:56 PM 32.0 °F 22.1 °F 28.4 °F 87% 29.28 in 10.0 mi SE 13.8 mph 18.4 mph N/A   Overcast
6:16 PM 32.0 °F 23.0 °F 28.4 °F 87% 29.28 in 10.0 mi SE 11.5 mph - N/A   Overcast
6:36 PM 33.8 °F 25.8 °F 26.6 °F 75% 29.28 in 10.0 mi SSE 10.4 mph 16.1 mph N/A   Overcast
6:56 PM 33.8 °F 24.8 °F 26.6 °F 75% 29.28 in 10.0 mi SE 12.7 mph - N/A   Overcast
7:16 PM 32.0 °F 23.0 °F 28.4 °F 87% 29.28 in 10.0 mi SE 11.5 mph - N/A   Overcast
7:36 PM 33.8 °F 27.0 °F 28.4 °F 81% 29.27 in 10.0 mi SSE 8.1 mph - N/A   Overcast
7:56 PM 33.8 °F 27.0 °F 28.4 °F 81% 29.28 in 10.0 mi SSE 8.1 mph - N/A   Overcast
8:16 PM 33.8 °F 27.7 °F 28.4 °F 81% 29.28 in 10.0 mi SSE 6.9 mph - N/A   Overcast
8:36 PM 33.8 °F 29.6 °F 28.4 °F 81% 29.27 in 10.0 mi South 4.6 mph - N/A   Mostly Cloudy
8:56 PM 33.8 °F 28.6 °F 28.4 °F 81% 29.27 in 10.0 mi South 5.8 mph - N/A   Overcast
9:16 PM 33.8 °F 30.8 °F 28.4 °F 81% 29.27 in 10.0 mi South 3.5 mph - N/A   Overcast
9:36 PM 33.8 °F 30.8 °F 28.4 °F 81% 29.26 in 10.0 mi SSW 3.5 mph - N/A   Overcast
9:56 PM 32.0 °F - 28.4 °F 87% 29.25 in 9.0 mi Calm Calm - N/A   Overcast
10:16 PM 32.0 °F 27.5 °F 28.4 °F 87% 29.24 in 10.0 mi NNW 4.6 mph - N/A   Overcast
10:36 PM 30.2 °F 25.4 °F 28.4 °F 93% 29.23 in 10.0 mi North 4.6 mph - N/A   Mostly Cloudy
10:56 PM 30.2 °F 25.4 °F 28.4 °F 93% 29.22 in 10.0 mi NNW 4.6 mph - N/A   Mostly Cloudy
11:16 PM 30.2 °F 23.4 °F 28.4 °F 93% 29.20 in 10.0 mi NNW 6.9 mph - N/A   Overcast
11:36 PM 30.2 °F 24.3 °F 28.4 °F 93% 29.19 in 10.0 mi NW 5.8 mph - N/A   Overcast
11:56 PM 30.2 °F 24.3 °F 28.4 °F 93% 29.17 in 10.0 mi NW 5.8 mph - N/A   Mostly Cloudy